Location: Marstown
(39.5056°N, 77.0820°W)
Time: 06:20:59
(UTC-05:00)

Envisat - Visible Passes

Search period start: 08 December 2019 00:00
Search period end: 18 December 2019 00:00
Orbit: 764 x 766 km, 98.1° (Epoch: 08 December)

Date Brightness Start Highest point End Pass type
(mag) Time Alt. Az. Time Alt. Az. Time Alt. Az.
08 Dec 5.7 05:59:05 10° NE 06:03:01 22° E 06:06:55 10° SE visible
08 Dec 3.9 17:12:43 10° SE 17:16:57 27° ENE 17:21:11 10° N visible
08 Dec 4.7 18:51:15 10° SSW 18:55:48 33° W 19:00:25 10° NNW visible
09 Dec 3.1 18:13:52 10° S 18:18:57 77° WSW 18:24:02 10° NNW visible
10 Dec 4.6 06:23:55 10° NNE 06:28:40 39° E 06:33:24 10° SSE visible
10 Dec 3.2 17:37:25 10° SE 17:42:16 47° ENE 17:47:07 10° N visible
10 Dec 5.6 19:17:56 10° SW 19:21:30 19° W 19:25:05 10° NW visible
11 Dec 5.9 05:48:17 10° NE 05:51:38 17° E 05:54:58 10° SE visible
11 Dec 4.2 18:39:41 10° S 18:44:29 43° W 18:49:19 10° NNW visible
12 Dec 2.9 18:02:36 10° SSE 18:07:40 84° ENE 18:12:46 10° N visible
12 Dec 6.3 19:47:00 10° W 19:47:16 10° W 19:47:34 10° W visible
13 Dec 5.1 06:12:50 10° NE 06:17:20 31° E 06:21:47 10° SSE visible
13 Dec 3.5 17:26:25 10° SE 17:31:02 37° ENE 17:35:41 10° N visible
13 Dec 5.2 19:06:03 10° SSW 19:10:07 24° W 19:14:14 10° NW visible
14 Dec 6.1 05:37:46 10° ENE 05:40:14 14° E 05:42:43 10° ESE visible
14 Dec 3.7 18:28:12 10° S 18:33:10 55° W 18:38:10 10° NNW visible
15 Dec 3.9 06:37:56 10° NNE 06:42:56 55° E 06:47:54 10° S visible
15 Dec 2.9 17:51:24 10° SSE 17:56:24 66° ENE 18:01:27 10° N visible
15 Dec 6.0 19:33:26 10° WSW 19:35:52 13° W 19:38:19 10° WNW visible
16 Dec 5.5 06:01:52 10° NE 06:05:59 24° E 06:10:04 10° SSE visible
16 Dec 3.8 17:15:29 10° SE 17:19:50 30° ENE 17:24:12 10° N visible
16 Dec 4.8 18:54:19 10° SSW 18:58:46 31° W 19:03:15 10° NW visible
17 Dec 6.5 05:28:18 10° E 05:28:49 10° E 05:29:20 10° E visible
17 Dec 3.3 18:16:49 10° S 18:21:53 71° W 18:26:57 10° NNW visible
